User: anonymous   Login
Location: Brunembert
(50.7122°N, 1.8935°E)
Time: 20:46:27
(UTC+00:00)
Language:

Cosmos 1633 - Orbit

View from above orbital plane
View from above orbital plane
View from above satellite
View from above satellite

Ground track
Ground track

The orbit data is extracted from the following two-line orbital elements,

1 15592U 85020A   21172.59690860  .00001484  00000-0  46389-4 0  9994
2 15592  82.5380 286.9377 0013068  27.2337 332.9587 15.32240447988402
Epoch (UTC): 21 June 2021 14:19:32
Eccentricity: 0.0013068
inclination: 82.5380°
perigee height: 460 km
apogee height: 478 km
right ascension of ascending node: 286.9377°
argument of perigee: 27.2337°
revolutions per day: 15.32240447
mean anomaly at epoch: 332.9587°
orbit number at epoch: 98840

The dashed part of the orbit path shows where the satellite is in the earth's shadow,  

DLR